NOAA 16 DEB, 41146

Orbit data source: Space-Track

NOAA 16 DEB, 41146 is space debris in SSO originally from a launch on Thu, 21 Sep 2000 UTC launched from the Air Force Western Test Range (AFWTR). Debris objects in space refer to the collection of defunct objects orbiting the Earth. Examples of debris include non-operational satellites, rocket bodies, and fragments generated from explosions, collisions, or faulty payload assembly.

Loading next visibility...
Identifier
41146, 2000-055CD
Orbit
SSO
Country
Flag of USUS
Related business
Manufacturer
Unknown
Mission
Spacecraft
Bus & Motor
Unknown
Mass
Unknown
Launch date (UTC)
2000-09-21 (26 years ago)
Launch vehicle
Unknown
Launch site
Air Force Western Test Range (AFWTR)
Object type
Payload
Rocket body
Debris
Shape & HBR
Unknown shape, 0.1 m
Radar Cross Section
Medium (>0.1 m² and <1 m²)

Expand to show TLE details & history
Last TLE update: 2 days ago

TLE from 2 days ago
0 NOAA 16 DEB
1 41146U 00055CD  26170.29474719  .00012398  00000-0  27600-2 0  9995
2 41146  98.8298 298.3006 0018383  99.1491 261.1786 14.56969935546795
Epoch: 2026-06-19T07:04Z
TLE epoch observation values (Epoch: 2026-06-19T07:04:26.157Z)
Latitude
-0.00002°
Longitude
-75.33417°
Altitude
707.956 km
Speed
7.501 km/s
True Right ascension
19h 53m 12s
True Declination
0° 00' 00"
Sunlit
Object was in full shadow at epoch
Visualization orbit readout
Latitude
Unknown
Longitude
Unknown
Altitude
Unknown
Speed
Unknown
Apparent Right ascension
Unknown
Apparent Declination
Unknown
Sunlit
N/A
Visualization observer readout
Local Sidereal Time
00:28:32
Azimuth
Unknown
Elevation
Unknown
Doppler factor
Unknown
Orbital elements
Apogee altitude
713.102 km
Perigee altitude
687.078 km
Semi-major axis
7,078.227 km
Eccentricity
0.00184
Inclination
98.8298°
RAAN
298.3006°
Arg. of periapsis
99.1491°
True anomaly
260.97051°
Mean anomaly
261.1786°
Eccentric anomaly
261.07455°
Mean motion
3.64466 °/min
Orbital period
98.77 mins
BSTAR
0.00276
Loading maneuver chart data...
Computing Atmospheric mass density...
Loading historical data...
Loading historical data...
Loading historical data...
Loading historical data...
Loading historical data...
Loading historical data...
Loading historical data...

Documentation

Showing up to 5 results
|